When you browse on this site, cookies collect data to enhance your experience and personalize the content and advertising you see.
Visit our Privacy Policy to learn more. By continuing to use the site, you agree to this use of cookies and data.
EN

Hourly Weather Potochyshche

Today, 27 September, Sunday

Time Temperature Precipitation Wind Pressure Humidity
00:00 +17°C° 0.2 mm 5 mps 720 mmHg 98%
01:00 +17°C° 1.3 mm 7 mps 720 mmHg 98%
02:00 +14°C° 1.6 mm 7 mps 720 mmHg 98%
03:00 +13°C° 0.7 mm 6 mps 721 mmHg 97%
04:00 +12°C° 1.2 mm 5 mps 722 mmHg 99%
05:00 +12°C° 1.2 mm 5 mps 722 mmHg 98%
06:00 +12°C° 0 mm 4 mps 723 mmHg 97%
07:00 +13°C° 0 mm 2 mps 724 mmHg 98%
08:00 +14°C° 0 mm 2 mps 725 mmHg 95%
09:00 +15°C° 0 mm 2 mps 726 mmHg 91%
10:00 +14°C° 0.4 mm 2 mps 727 mmHg 94%
11:00 +16°C° 0 mm 3 mps 728 mmHg 86%
12:00 +16°C° 0 mm 3 mps 728 mmHg 85%
13:00 +15°C° 0 mm 4 mps 729 mmHg 76%
14:00 +17°C° 0 mm 4 mps 730 mmHg 76%
15:00 +17°C° 0 mm 2 mps 731 mmHg 77%
16:00 +17°C° 0 mm 2 mps 731 mmHg 77%
17:00 +16°C° 0 mm 3 mps 732 mmHg 76%
18:00 +14°C° 0 mm 4 mps 732 mmHg 80%
19:00 +13°C° 0 mm 3 mps 733 mmHg 82%
20:00 +12°C° 0 mm 4 mps 734 mmHg 83%
21:00 +11°C° 0 mm 3 mps 734 mmHg 81%
22:00 +11°C° 0 mm 3 mps 735 mmHg 84%
23:00 +10°C° 0 mm 2 mps 735 mmHg 83%

Tomorrow, 28 September, Monday

Time Temperature Precipitation Wind Pressure Humidity
00:00 +11°C° 0 mm 1 mps 736 mmHg 83%
01:00 +11°C° 0 mm 1 mps 736 mmHg 84%
02:00 +11°C° 0 mm 1 mps 736 mmHg 86%
03:00 +10°C° 0 mm 1 mps 736 mmHg 88%
04:00 +9°C° 0 mm 2 mps 736 mmHg 88%
05:00 +9°C° 0 mm 2 mps 737 mmHg 87%
06:00 +8°C° 0 mm 2 mps 737 mmHg 91%
07:00 +8°C° 0 mm 2 mps 737 mmHg 98%
08:00 +9°C° 0 mm 2 mps 737 mmHg 99%
09:00 +11°C° 0 mm 3 mps 737 mmHg 94%
10:00 +13°C° 0 mm 4 mps 737 mmHg 91%
11:00 +15°C° 0 mm 5 mps 737 mmHg 89%
12:00 +16°C° 0 mm 6 mps 737 mmHg 83%
13:00 +17°C° 0 mm 6 mps 737 mmHg 84%
14:00 +19°C° 0 mm 6 mps 736 mmHg 84%
15:00 +18°C° 0 mm 7 mps 736 mmHg 84%
16:00 +17°C° 0 mm 6 mps 735 mmHg 86%
17:00 +17°C° 0 mm 6 mps 735 mmHg 91%
18:00 +16°C° 0 mm 6 mps 735 mmHg 95%
19:00 +16°C° 0 mm 6 mps 735 mmHg 98%
20:00 +16°C° 0 mm 6 mps 735 mmHg 98%
21:00 +16°C° 0 mm 6 mps 735 mmHg 99%
22:00 +15°C° 0 mm 5 mps 735 mmHg 99%
23:00 +15°C° 0 mm 5 mps 735 mmHg 99%

Day after tomorrow, 29 September, Tuesday

Time Temperature Precipitation Wind Pressure Humidity
00:00 +15°C° 0 mm 5 mps 735 mmHg 100%
01:00 +15°C° 0 mm 4 mps 734 mmHg 100%
02:00 +15°C° 0 mm 4 mps 734 mmHg 100%
03:00 +15°C° 0 mm 5 mps 734 mmHg 100%
04:00 +15°C° 0 mm 5 mps 733 mmHg 100%
05:00 +14°C° 0 mm 3 mps 733 mmHg 100%
06:00 +15°C° 0.1 mm 2 mps 733 mmHg 100%
07:00 +15°C° 0.2 mm 2 mps 733 mmHg 100%
08:00 +15°C° 0.5 mm 2 mps 733 mmHg 100%
09:00 +15°C° 7 mm 2 mps 733 mmHg 100%
10:00 +13°C° 14.8 mm 4 mps 733 mmHg 98%
11:00 +13°C° 4.2 mm 4 mps 733 mmHg 99%
12:00 +14°C° 1 mm 3 mps 732 mmHg 98%
13:00 +15°C° 0.4 mm 1 mps 732 mmHg 99%
14:00 +16°C° 0.7 mm 2 mps 731 mmHg 97%
15:00 +17°C° 0 mm 4 mps 731 mmHg 95%
16:00 +17°C° 0 mm 3 mps 731 mmHg 97%
17:00 +17°C° 0 mm 2 mps 731 mmHg 98%
18:00 +16°C° 0 mm 1 mps 730 mmHg 99%
19:00 +16°C° 0 mm 1 mps 730 mmHg 100%
20:00 +16°C° 0 mm 1 mps 730 mmHg 100%
21:00 +16°C° 0 mm 1 mps 730 mmHg 100%
22:00 +16°C° 0 mm 1 mps 730 mmHg 100%
23:00 +15°C° 0 mm 2 mps 730 mmHg 100%

30 September, Wednesday

Time Temperature Precipitation Wind Pressure Humidity
00:00 +15°C° 0 mm 2 mps 730 mmHg 100%
01:00 +15°C° 0 mm 1 mps 729 mmHg 100%
02:00 +15°C° 0 mm 2 mps 729 mmHg 99%
03:00 +15°C° 0 mm 2 mps 729 mmHg 98%
04:00 +13°C° 0 mm 3 mps 729 mmHg 99%
05:00 +13°C° 0 mm 3 mps 729 mmHg 99%
06:00 +14°C° 0 mm 2 mps 729 mmHg 98%
07:00 +14°C° 0 mm 2 mps 729 mmHg 98%
08:00 +13°C° 0 mm 3 mps 729 mmHg 98%
09:00 +12°C° 0.7 mm 4 mps 728 mmHg 100%
10:00 +12°C° 0.2 mm 5 mps 728 mmHg 99%
11:00 +13°C° 0 mm 5 mps 728 mmHg 98%
12:00 +13°C° 0 mm 6 mps 728 mmHg 98%
13:00 +13°C° 0.3 mm 5 mps 727 mmHg 99%
14:00 +14°C° 0 mm 5 mps 727 mmHg 99%
15:00 +14°C° 0.3 mm 5 mps 727 mmHg 99%
16:00 +13°C° 0 mm 5 mps 726 mmHg 98%
17:00 +13°C° 0 mm 5 mps 726 mmHg 98%
18:00 +13°C° 0 mm 5 mps 726 mmHg 99%
19:00 +13°C° 0 mm 4 mps 726 mmHg 99%
20:00 +13°C° 0 mm 4 mps 726 mmHg 100%
21:00 +13°C° 0 mm 3 mps 725 mmHg 100%
22:00 +13°C° 0 mm 3 mps 725 mmHg 100%
23:00 +14°C° 0 mm 2 mps 725 mmHg 100%

1 October, Thursday

Time Temperature Precipitation Wind Pressure Humidity
00:00 +13°C° 0 mm 2 mps 725 mmHg 100%
01:00 +13°C° 0 mm 2 mps 724 mmHg 100%
02:00 +13°C° 0 mm 2 mps 724 mmHg 99%
03:00 +13°C° 0 mm 2 mps 724 mmHg 99%
04:00 +13°C° 0 mm 2 mps 724 mmHg 99%
05:00 +13°C° 0 mm 2 mps 724 mmHg 99%
06:00 +13°C° 0 mm 2 mps 724 mmHg 99%
07:00 +13°C° 0 mm 2 mps 724 mmHg 99%
08:00 +13°C° 0 mm 1 mps 724 mmHg 99%
09:00 +13°C° 0 mm 1 mps 724 mmHg 99%
10:00 +13°C° 0 mm 1 mps 724 mmHg 98%
11:00 +14°C° 0 mm 1 mps 725 mmHg 98%
12:00 +14°C° 0 mm 2 mps 725 mmHg 98%
13:00 +14°C° 0 mm 1 mps 725 mmHg 98%
14:00 +13°C° 0 mm 0 mps 725 mmHg 98%
15:00 +13°C° 0 mm 0 mps 725 mmHg 98%
16:00 +14°C° 0 mm 1 mps 725 mmHg 98%
17:00 +14°C° 0 mm 2 mps 725 mmHg 98%
18:00 +13°C° 0 mm 2 mps 725 mmHg 99%
19:00 +13°C° 0 mm 2 mps 726 mmHg 100%
20:00 +12°C° 0 mm 2 mps 726 mmHg 100%
21:00 +13°C° 0 mm 2 mps 726 mmHg 100%
22:00 +13°C° 0 mm 2 mps 726 mmHg 100%
23:00 +13°C° 0 mm 1 mps 726 mmHg 100%

2 October, Friday

Time Temperature Precipitation Wind Pressure Humidity
00:00 +12°C° 0 mm 1 mps 726 mmHg 100%
01:00 +11°C° 0 mm 1 mps 726 mmHg 100%
02:00 +11°C° 0 mm 1 mps 726 mmHg 100%
03:00 +10°C° 0 mm 0 mps 726 mmHg 100%
04:00 +10°C° 0 mm 0 mps 727 mmHg 100%
05:00 +11°C° 0 mm 1 mps 727 mmHg 100%
06:00 +11°C° 0 mm 1 mps 727 mmHg 100%
07:00 +11°C° 0 mm 1 mps 727 mmHg 100%
08:00 +12°C° 0 mm 1 mps 728 mmHg 99%
09:00 +13°C° 0 mm 2 mps 728 mmHg 98%
10:00 +14°C° 0 mm 3 mps 729 mmHg 97%
11:00 +17°C° 0 mm 3 mps 729 mmHg 93%
12:00 +17°C° 0 mm 3 mps 729 mmHg 83%
13:00 +17°C° 0.3 mm 4 mps 730 mmHg 89%
14:00 +17°C° 0.3 mm 2 mps 730 mmHg 86%
15:00 +18°C° 0 mm 2 mps 730 mmHg 86%
16:00 +17°C° 0 mm 2 mps 730 mmHg 89%
17:00 +16°C° 0 mm 0 mps 730 mmHg 91%
18:00 +16°C° 0 mm 0 mps 731 mmHg 90%
19:00 +16°C° 0 mm 1 mps 731 mmHg 95%
20:00 +15°C° 0 mm 1 mps 732 mmHg 100%
21:00 +14°C° 0 mm 1 mps 732 mmHg 99%
22:00 +14°C° 0 mm 1 mps 732 mmHg 100%
23:00 +14°C° 0 mm 1 mps 732 mmHg 100%
Show more